STARLINK-36172

Last updated on Fri Dec 19 2025 00:02:09 GMT+0000 (Coordinated Universal Time)

1 67020U 25293T 25351.83335648 -.01111702 39278-3 -23797-2 0 9999 2 67020 69.9928 309.0006 0004109 269.1784 139.0522 15.98392956 2381
UTC large
Height (km)
Speed (km/s)
/
Latitude / Longitude
Inclination (degrees)
Orbital Period (minutes)
Azimuth
Elevation
Range (km)
Doppler Factor

Next 0 passes for location: London (51.5072 / 0.1276)

Sorry there are no passes over London.